This is the latest recevied weather packets stored in our database for station/object IU8UOQ-5. If no packets are shown the sender has not sent any weather packets the latest 10 day(s).
| Time | Temp. | Humidity | Pressure | Rain* | Wind** | Luminosity | Snow |
|---|---|---|---|---|---|---|---|
| 1777719308 | 18.89° C | 35% | 1012.5 hPa | - | - | - | - |
| 1777718107 | 18.89° C | 34% | 1012.5 hPa | - | - | - | - |
| 1777716906 | 18.89° C | 36% | 1012.7 hPa | - | - | - | - |
| 1777715705 | 18.89° C | 36% | 1012.8 hPa | - | - | - | - |
| 1777714503 | 18.89° C | 36% | 1012.7 hPa | - | - | - | - |
| 1777713302 | 18.89° C | 35% | 1012.5 hPa | - | - | - | - |
| 1777712101 | 18.89° C | 33% | 1012.4 hPa | - | - | - | - |
| 1777710900 | 19.44° C | 40% | 1012.3 hPa | - | - | - | - |
| 1777709698 | 19.44° C | 40% | 1012.2 hPa | - | - | - | - |
| 1777708497 | 19.44° C | 41% | 1012.2 hPa | - | - | - | - |
| 1777707296 | 19.44° C | 41% | 1012.5 hPa | - | - | - | - |
| 1777706095 | 19.44° C | 41% | 1012.3 hPa | - | - | - | - |
| 1777704893 | 19.44° C | 41% | 1012.3 hPa | - | - | - | - |
| 1777703692 | 19.44° C | 41% | 1012.1 hPa | - | - | - | - |
| 1777702491 | 19.44° C | 40% | 1012 hPa | - | - | - | - |
| 1777701289 | 19.44° C | 41% | 1011.9 hPa | - | - | - | - |
| 1777700088 | 19.44° C | 41% | 1011.8 hPa | - | - | - | - |
| 1777698887 | 19.44° C | 41% | 1011.8 hPa | - | - | - | - |
| 1777697686 | 19.44° C | 40% | 1011.7 hPa | - | - | - | - |
| 1777696484 | 19.44° C | 40% | 1011.5 hPa | - | - | - | - |
| 1777695283 | 19.44° C | 41% | 1011.4 hPa | - | - | - | - |
| 1777694082 | 19.44° C | 42% | 1011.4 hPa | - | - | - | - |
| 1777692881 | 19.44° C | 42% | 1011.4 hPa | - | - | - | - |
| 1777691679 | 19.44° C | 44% | 1011.6 hPa | - | - | - | - |
| 1777690478 | 19.44° C | 45% | 1011.7 hPa | - | - | - | - |
* Rain since midnight (hover to see other rain measurements)
** Current wind speed in m/s (hover to see current wind gust speed)